Flag for Japan Weather past 2 weeks in Yokosuka, Japan

46 °F

Passing clouds.

Feels Like: 44 °F
Forecast: 45 / 57 °F
Wind: 5 mph from Northwest

Location: Tokyo International Airport

Current Time: Nov 28, 2015 at 8:10:46 AM

Latest Report: Nov 28, 2015 at 7:30 AM

Visibility: N/A

Pressure: 30.12 "Hg

Humidity: 62%

Dew point: 34 °F

Location of YokosukaLocation

Historic Weather in Yokosuka — Graph


Yokosuka temperature yesterday

Maximum temperature yesterday: 59 °F (at 12:00 PM)
Minimum temperature yesterday: 50 °F (at 12:00 AM)
Average temperature yesterday: 54 °F

Past Weeks' High & Low Weather Summary

High75 °F (Nov 17, 12:00 PM)100% (Nov 14, 5:30 PM)30.48 "Hg (Nov 14, 5:30 PM)
Low41 °F (Nov 28, 6:00 AM)16% (Nov 27, 1:00 PM)29.62 "Hg (Nov 27, 12:00 AM)
Average58 °F78%30.06 "Hg
* Reported Nov 13 7:00 AM — Nov 28 7:00 AM, Yokosuka, Weather by CustomWeather, © 2015

Note: Actual official high and low records may vary slightly from our data, if they occured in-between our weather recording intervals... More about our weather records


Yokosuka weather history for previous 24 hours

Time TempWeatherWind HumidityBarometerVisibility
7:00 AM
Sat, Nov 28
43 °FPassing clouds.5 mph71%30.09 "HgN/A
6:30 AM43 °FPassing clouds.5 mph66%30.09 "HgN/A
6:00 AM41 °FPassing clouds.5 mph70%30.07 "HgN/A
5:30 AM43 °FPassing clouds.5 mph66%30.07 "HgN/A
5:00 AM43 °FPassing clouds.5 mph61%30.07 "HgN/A
4:30 AM43 °FPassing clouds.7 mph66%30.07 "HgN/A
4:00 AM43 °FPassing clouds.8 mph66%30.07 "HgN/A
3:30 AM43 °FPassing clouds.7 mph66%30.07 "HgN/A
3:00 AM45 °FPassing clouds.6 mph57%30.04 "HgN/A
2:30 AM48 °FPassing clouds.3 mph50%30.04 "HgN/A
2:00 AM46 °FPassing clouds.5 mph53%30.04 "HgN/A
1:30 AM50 °FPassing clouds.3 mph50%30.04 "HgN/A
1:00 AM50 °FPassing clouds.5 mph50%30.04 "HgN/A
12:30 AM50 °FPassing clouds.6 mph47%30.04 "HgN/A
12:00 AM50 °FPassing clouds.6 mph50%30.04 "HgN/A
11:30 PM
Fri, Nov 27
50 °FPassing clouds.8 mph50%30.04 "HgN/A
11:00 PM50 °FPassing clouds.7 mph50%30.04 "HgN/A
10:30 PM52 °FPassing clouds.7 mph47%30.04 "HgN/A
10:00 PM52 °FPassing clouds.7 mph47%30.04 "HgN/A
9:30 PM52 °FPassing clouds.7 mph44%30.01 "HgN/A
9:00 PM52 °FPassing clouds.8 mph44%30.01 "HgN/A
8:30 PM50 °FPassing clouds.6 mph43%30.01 "HgN/A
8:00 PM50 °FPassing clouds.8 mph43%29.98 "HgN/A
7:30 PM50 °FPassing clouds.9 mph40%29.98 "HgN/A
7:00 PM54 °FPassing clouds.10 mph38%29.95 "HgN/A
6:30 PM54 °FPassing clouds.3 mph30%29.95 "HgN/A
6:00 PM54 °FPassing clouds.5 mph30%29.92 "HgN/A
5:30 PM54 °FPassing clouds.8 mph30%29.89 "HgN/A
5:00 PM54 °FPassing clouds.8 mph28%29.89 "HgN/A
3:30 PM59 °FPassing clouds.15 mph20%29.80 "HgN/A
3:00 PM59 °FPassing clouds.14 mph20%29.80 "HgN/A
2:30 PM59 °FPassing clouds.16 mph18%29.77 "HgN/A
2:00 PM59 °FPassing clouds.15 mph17%29.77 "HgN/A
1:00 PM59 °FPassing clouds.20 mph16%29.74 "HgN/A
12:30 PM59 °FPassing clouds.16 mph17%29.74 "HgN/A
12:00 PM59 °FPassing clouds.18 mph23%29.71 "HgN/A
11:30 AM57 °FPassing clouds.18 mph18%29.71 "HgN/A
11:00 AM57 °FPassing clouds.16 mph20%29.71 "HgN/A
10:30 AM57 °FPassing clouds.18 mph20%29.71 "HgN/A
10:00 AM57 °FPassing clouds.21 mph23%29.71 "HgN/A
9:30 AM55 °FPassing clouds.20 mph26%29.71 "HgN/A
9:00 AM55 °FPassing clouds.16 mph28%29.68 "HgN/A
8:30 AM55 °FPassing clouds.14 mph31%29.71 "HgN/A
8:00 AM54 °FPassing clouds.17 mph30%29.71 "HgN/A
Weather by CustomWeather, © 2015

See weather overviewHow to use our weather pages